[[{"header":{"parameterUnit":"m.s-1","parameterCategory":1,"la1":30.2991,"la2":30.254,"lo1":-89.0895,"lo2":-89.0444,"dy":0.0017,"dx":0.0017,"nx":28,"ny":28,"refTime":"2024-03-13T03:00:00:Z","depth":0,"parameterNumber":2,"parameterNumberName":"U-component_of_WINDS"},"data":[0,0,0,0,0,0,0,0,0,0,0,0,0,0,0,0,0,0,0,0,0,0,0,0,0,0,0,0,0,0,0,0,0,0,0,0,0,0,0,0,0,0,0,0,0,0,0,0,0,0,0,0,0,0,0,0,0,0,-5.4593,-5.4594,0,-5.4764,-5.4766,-5.4768,-5.4764,-5.4762,-5.476,-5.4758,-5.4932,-5.4938,-5.4945,0,0,0,0,0,0,0,0,0,0,0,0,0,-5.4263,-5.4269,-5.4592,-5.4595,-5.4597,-5.4764,-5.4766,-5.4768,-5.4765,-5.4762,-5.4759,-5.4757,-5.4929,-5.4937,-5.4946,0,0,0,0,0,0,0,0,0,0,0,0,0,-5.4417,-5.4271,-5.4592,-5.4615,-5.4619,-5.4763,-5.4766,-5.4769,-5.4765,-5.4762,-5.4758,-5.4755,-5.4927,-5.4937,-5.4947,-5.5079,0,0,-5.4978,-5.4982,0,0,0,0,0,0,0,0,-5.4408,-5.4429,-5.461,-5.4614,-5.4618,-5.4739,-5.4714,-5.4873,-5.4766,-5.471,-5.4757,-5.4753,-5.487,-5.4885,-5.4925,-5.5087,-5.5094,-5.4979,-5.4985,-5.4989,-5.4992,0,0,0,0,0,0,0,-5.4398,-5.4422,-5.466,-5.4612,-5.4618,-5.4617,-5.4635,-5.4744,-5.4807,-5.4714,-5.4715,-5.4735,-5.4872,-5.4915,-5.4929,-5.5097,-5.4978,-5.4987,-5.4994,-5.4998,-5.5377,-5.5381,0,0,0,0,0,0,-5.4382,-5.4413,-5.4655,-5.4665,-5.4503,-5.4626,-5.4646,-5.4704,-5.4806,-5.4818,-5.4738,-5.4734,-5.4899,-5.4917,-5.4935,-5.5096,-5.4989,-5.4999,-5.5005,-5.5373,-5.5378,-5.5383,0,0,0,0,0,0,-5.4375,-5.4404,-5.4648,-5.4539,-5.457,-5.4635,-5.47,-5.4709,-5.4752,-5.4824,-5.4835,-5.477,-5.4897,-5.492,-5.5043,-5.5102,-5.5003,-5.5013,-5.5369,-5.5375,-5.538,-5.5418,0,0,0,0,0,0,-5.4366,-5.4401,-5.4452,-5.4541,-5.4576,-5.4753,-5.4704,-5.4715,-5.4769,-5.4766,-5.4857,-5.4868,-5.4896,-5.5028,-5.5053,-5.5114,-5.5021,-5.5364,-5.5371,-5.5378,-5.5412,-5.5425,-5.5436,0,0,0,0,0,-5.4354,-5.4455,-5.4454,-5.4483,-5.4641,-5.4756,-5.4777,-5.4807,-5.4774,-5.4825,-5.4872,-5.4865,-5.5092,-5.5041,-5.5069,-5.5133,-5.536,-5.5369,-5.5378,-5.5407,-5.5422,-5.5436,0,0,0,0,0,0,-5.437,-5.4467,-5.4467,-5.46,-5.467,-5.4756,-5.4821,-5.4823,-5.4903,-5.4897,-5.4931,-5.4952,-5.5074,-5.5117,-5.5058,-5.5267,-5.5222,-5.5237,-5.5234,-5.525,-5.5261,-5.5247,-5.5029,0,0,0,0,0,-5.4389,-5.4476,-5.4556,-5.4665,-5.4701,-5.4755,-5.4807,-5.4825,-5.4898,-5.4928,-5.4983,-5.5055,-5.5142,-5.5199,-5.5284,-5.542,-5.5439,-5.5479,-5.549,-5.55,-5.5511,-5.5586,-5.5604,-5.5412,-5.5412,-5.5412,0,0,-5.4429,-5.4493,-5.4545,-5.467,-5.4727,-5.4815,-5.478,-5.4874,-5.494,-5.4942,-5.506,-5.5105,-5.5187,-5.5317,-5.5378,-5.5357,-5.5569,-5.5511,-5.5518,-5.5524,-5.5597,-5.5616,-5.5632,-5.5418,-5.5417,-5.5416,0,0,-5.4546,-5.4604,-5.4701,-5.476,-5.4846,-5.4882,-5.4906,-5.4992,-5.5022,-5.5142,-5.5145,-5.5225,-5.5375,-5.5434,-5.5483,-5.5627,-5.5623,-5.5654,-5.5714,-5.5787,-5.5802,-5.5816,-5.5865,-5.5883,-5.5666,-5.5666,-5.5666,0,-5.4584,-5.4717,-5.4751,-5.4847,-5.4902,-5.491,-5.5008,-5.5063,-5.5173,-5.5211,-5.5187,-5.5376,-5.5432,-5.5576,-5.5611,-5.5652,-5.5679,-5.5641,-5.5798,-5.5811,-5.5825,-5.5872,-5.5891,-5.5669,-5.5669,-5.5668,-5.5668,0,-5.476,-5.4852,-5.4921,-5.5027,-5.5091,-5.5187,-5.5236,-5.5296,-5.531,-5.5349,-5.5472,-5.5541,-5.5639,-5.5676,-5.569,-5.5823,-5.5807,-5.579,-5.5744,-5.5845,-5.589,-5.5909,-5.5673,-5.5672,-5.5671,-5.5671,0,0,-5.4886,-5.5013,-5.5037,-5.5086,-5.5184,-5.5257,-5.5355,-5.5452,-5.5503,-5.558,-5.5662,-5.5791,-5.5777,-5.5833,-5.5854,-5.5919,-5.6027,-5.5895,-5.5897,-5.5915,-5.6177,-5.6186,-5.6207,-5.6028,-5.6031,-5.6034,-5.6169,0,-5.5012,-5.5186,-5.522,-5.5371,-5.5457,-5.5468,-5.5554,-5.5623,-5.5664,-5.5743,-5.5788,-5.5877,-5.5853,-5.5887,-5.5952,-5.6,-5.608,-5.5992,-5.6103,-5.6107,-5.6078,-5.6231,-5.624,-5.6364,-5.6187,-5.619,-5.6192,0,-5.518,-5.5262,-5.5421,-5.5509,-5.5547,-5.5623,-5.5715,-5.5792,-5.5872,-5.5897,-5.5961,-5.5976,-5.6079,-5.6033,-5.6174,-5.6114,-5.6162,-5.6194,-5.6199,-5.6208,-5.6152,-5.624,-5.6404,-5.6421,-5.6221,-5.6219,-5.6217,0,-5.5253,-5.5404,-5.5519,-5.5561,-5.5667,-5.572,-5.5767,-5.5844,-5.5901,-5.5983,-5.602,-5.6113,-5.6163,-5.6235,-5.6275,-5.6238,-5.6414,-5.637,-5.6436,-5.6435,-5.6469,-5.6466,-5.664,-5.6506,-5.6506,-5.6506,-5.6505,0,-5.5387,-5.5484,-5.5553,-5.5623,-5.5733,-5.5773,-5.588,-5.5926,-5.5996,-5.6075,-5.6092,-5.6166,-5.6216,-5.6298,-5.6331,-5.6443,-5.6466,-5.6488,-5.6495,-5.6485,-5.6481,-5.6514,-5.6505,-5.6511,-5.651,-5.6509,-5.6508,0,-5.5486,-5.5537,-5.5662,-5.5754,-5.5779,-5.5855,-5.5934,-5.6003,-5.6045,-5.6146,-5.6172,-5.6238,-5.6335,-5.6384,-5.6505,-5.6527,-5.6653,-5.6656,-5.6625,-5.6627,-5.6689,-5.6681,-5.6887,-5.6916,-5.6766,-5.6768,-5.6769,0,-5.5566,-5.564,-5.5741,-5.5796,-5.5844,-5.5933,-5.5991,-5.6036,-5.6096,-5.6195,-5.6252,-5.6351,-5.6431,-5.6587,-5.6645,-5.6738,-5.6742,-5.6808,-5.6756,-5.6743,-5.674,-5.6733,-5.674,-5.6816,-5.6817,-5.6818,-5.6819,0,-5.5702,-5.5724,-5.5808,-5.5902,-5.5972,-5.6048,-5.6123,-5.6168,-5.6224,-5.6292,-5.6392,-5.6455,-5.658,-5.6677,-5.6775,-5.6824,-5.6831,-5.6836,-5.6856,-5.6844,-5.6822,-5.6832,-5.6647,-5.683,-5.6829,-5.6828,-5.6827,-5.6827,-5.5792,-5.5858,-5.594,-5.6034,-5.6096,-5.6166,-5.6235,-5.6288,-5.6372,-5.6477,-5.6499,-5.6605,-5.6686,-5.6819,-5.6871,-5.6954,-5.694,-5.6969,-5.6975,-5.6981,-5.6983,-5.6812,-5.6973,-5.6973,-5.6972,-5.6972,-5.6972,0,-5.5926,-5.598,-5.6066,-5.6171,-5.6246,-5.6249,-5.6333,-5.6394,-5.6487,-5.6563,-5.6643,-5.6759,-5.6854,-5.6922,-5.7019,-5.7073,-5.7079,-5.7097,-5.7091,-5.7102,-5.6991,-5.6963,-5.7091,-5.7091,-5.7091,-5.7091,-5.7091,-5.7091,-5.6004,-5.6117,-5.615,-5.6295,-5.6349,-5.6453,-5.6501,-5.6566,-5.6626,-5.6755,-5.6835,-5.6879,-5.6952,-5.7055,-5.7143,-5.7161,-5.7194,-5.7212,-5.7229,-5.7123,-5.711,-5.7098,-5.7072,-5.722,-5.722,-5.7333,-5.7334,-5.7334]},{"header":{"parameterUnit":"m.s-1","parameterCategory":1,"la1":30.2991,"la2":30.254,"lo1":-89.0895,"lo2":-89.0444,"dy":0.0017,"dx":0.0017,"nx":28,"ny":28,"refTime":"2024-03-13T03:00:00:Z","depth":0,"parameterNumber":3,"parameterNumberName":"V-component_of_WINDS"},"data":[0,0,0,0,0,0,0,0,0,0,0,0,0,0,0,0,0,0,0,0,0,0,0,0,0,0,0,0,0,0,0,0,0,0,0,0,0,0,0,0,0,0,0,0,0,0,0,0,0,0,0,0,0,0,0,0,0,0,1.8526,1.8527,0,1.8598,1.8599,1.86,1.8644,1.8644,1.8644,1.8645,1.8714,1.8715,1.8717,0,0,0,0,0,0,0,0,0,0,0,0,0,1.8425,1.8426,1.8526,1.8527,1.8528,1.8598,1.8599,1.86,1.8644,1.8644,1.8644,1.8645,1.8713,1.8715,1.8717,0,0,0,0,0,0,0,0,0,0,0,0,0,1.848,1.8427,1.8526,1.8558,1.8562,1.8598,1.8599,1.86,1.8644,1.8644,1.8645,1.8645,1.8713,1.8715,1.8717,1.8725,0,0,1.8725,1.8726,0,0,0,0,0,0,0,0,1.8477,1.8483,1.8553,1.8556,1.856,1.8612,1.8589,1.8642,1.8644,1.8613,1.8645,1.8645,1.8679,1.8685,1.8697,1.8728,1.8731,1.8725,1.8726,1.8727,1.8728,0,0,0,0,0,0,0,1.8473,1.8481,1.8554,1.8554,1.8558,1.8569,1.8577,1.8599,1.8643,1.8615,1.8619,1.8627,1.8682,1.8695,1.8699,1.8732,1.8725,1.8727,1.8728,1.8729,1.8776,1.8776,0,0,0,0,0,0,1.8464,1.8477,1.8552,1.8556,1.8519,1.857,1.8579,1.8595,1.8643,1.8651,1.8627,1.8629,1.869,1.8696,1.8702,1.8716,1.8727,1.873,1.8731,1.8776,1.8776,1.8776,0,0,0,0,0,0,1.8462,1.847,1.8549,1.8518,1.8529,1.8572,1.8589,1.8596,1.861,1.8651,1.8659,1.8632,1.8691,1.8698,1.872,1.8719,1.8731,1.8733,1.8777,1.8776,1.8776,1.8743,0,0,0,0,0,0,1.8459,1.8469,1.8473,1.8518,1.853,1.8566,1.8589,1.8598,1.8614,1.8618,1.8659,1.8666,1.8692,1.8716,1.8722,1.8722,1.8735,1.8777,1.8777,1.8776,1.8744,1.8741,1.8739,0,0,0,0,0,1.8455,1.8459,1.8473,1.8481,1.8536,1.8566,1.8573,1.8605,1.8614,1.8618,1.8645,1.8664,1.8718,1.8718,1.8725,1.8726,1.8777,1.8777,1.8776,1.8745,1.8742,1.8739,0,0,0,0,0,0,1.841,1.8465,1.8481,1.85,1.8528,1.8574,1.8579,1.86,1.8625,1.8627,1.8663,1.8672,1.8691,1.871,1.8709,1.8738,1.875,1.8751,1.8724,1.8721,1.8718,1.8713,1.8737,0,0,0,0,0,1.8403,1.8424,1.847,1.8482,1.8496,1.8535,1.855,1.8572,1.8602,1.8614,1.8643,1.8671,1.8694,1.8709,1.8732,1.8748,1.8758,1.8752,1.8749,1.8747,1.8747,1.8759,1.8758,1.8774,1.8774,1.8774,0,0,1.8386,1.8419,1.843,1.8474,1.8499,1.852,1.8545,1.8565,1.8582,1.8617,1.864,1.8662,1.8696,1.8715,1.8725,1.8732,1.8745,1.8746,1.8744,1.8746,1.8759,1.8757,1.8756,1.8774,1.8774,1.8774,0,0,1.8369,1.8395,1.841,1.8435,1.8474,1.85,1.8504,1.8547,1.8564,1.8588,1.8616,1.8636,1.8674,1.8698,1.8715,1.8711,1.873,1.8718,1.8704,1.8715,1.8714,1.8713,1.8713,1.8712,1.8718,1.8718,1.8718,0,1.8344,1.8378,1.8414,1.8434,1.8454,1.8489,1.8505,1.8527,1.857,1.8582,1.859,1.8643,1.8667,1.8694,1.8694,1.8706,1.8711,1.8713,1.8712,1.8711,1.8711,1.8711,1.8711,1.8716,1.8716,1.8716,1.8717,0,1.8346,1.837,1.8377,1.8421,1.8441,1.8458,1.8497,1.8513,1.8534,1.856,1.8585,1.8617,1.8649,1.8657,1.8677,1.8687,1.8691,1.8705,1.8718,1.8707,1.8708,1.8708,1.8714,1.8714,1.8715,1.8715,0,0,1.83,1.8367,1.8369,1.8391,1.8437,1.8456,1.8476,1.851,1.8523,1.8552,1.857,1.8605,1.8619,1.8638,1.8661,1.8671,1.8668,1.8684,1.8686,1.8681,1.8684,1.8674,1.8674,1.8682,1.8682,1.8682,1.8682,0,1.829,1.8329,1.8364,1.839,1.8413,1.8449,1.8467,1.8497,1.8522,1.8545,1.8573,1.8597,1.8613,1.8626,1.8637,1.8666,1.8669,1.8667,1.8699,1.8699,1.869,1.8674,1.8663,1.8661,1.8682,1.8682,1.8682,0,1.8283,1.8314,1.8343,1.8391,1.8402,1.8417,1.8453,1.8474,1.851,1.8528,1.8552,1.8577,1.86,1.8612,1.8644,1.8642,1.8657,1.8674,1.8674,1.8678,1.869,1.8679,1.8661,1.8661,1.8683,1.8683,1.8683,0,1.8248,1.8297,1.8322,1.834,1.8395,1.8406,1.8429,1.8466,1.8485,1.8515,1.8529,1.856,1.8578,1.8602,1.8636,1.864,1.8665,1.8679,1.8681,1.868,1.8684,1.8684,1.867,1.8693,1.8693,1.8693,1.8693,0,1.8234,1.8251,1.8308,1.8323,1.8344,1.8384,1.8403,1.8429,1.8462,1.8483,1.8515,1.8534,1.8577,1.86,1.8627,1.8651,1.8658,1.8673,1.868,1.8671,1.8669,1.8681,1.8682,1.8693,1.8693,1.8693,1.8693,0,1.8198,1.8237,1.8267,1.8319,1.8332,1.8345,1.8389,1.8406,1.8434,1.846,1.8469,1.8513,1.8543,1.858,1.862,1.8638,1.866,1.867,1.8649,1.8653,1.8654,1.8653,1.8647,1.8649,1.867,1.867,1.867,0,1.8187,1.8201,1.8256,1.8274,1.8297,1.8324,1.8345,1.8386,1.8406,1.845,1.8461,1.8495,1.8523,1.857,1.8605,1.8637,1.8649,1.8645,1.8653,1.8645,1.865,1.8649,1.8652,1.8642,1.8641,1.8641,1.8641,0,1.8163,1.8182,1.8212,1.825,1.8275,1.8305,1.8337,1.8349,1.8396,1.8418,1.8451,1.8473,1.8517,1.855,1.8588,1.8611,1.8634,1.8638,1.8641,1.8631,1.8619,1.8627,1.8643,1.8638,1.8638,1.8638,1.8638,1.8638,1.814,1.8156,1.8198,1.823,1.826,1.829,1.8309,1.8341,1.837,1.8411,1.8432,1.8465,1.8503,1.8556,1.8579,1.8605,1.8613,1.8616,1.8617,1.8617,1.8615,1.8615,1.8612,1.8612,1.8612,1.8612,1.8612,0,1.8119,1.8149,1.8179,1.8225,1.8251,1.8273,1.831,1.833,1.8359,1.8394,1.8423,1.8462,1.8495,1.8534,1.8569,1.8583,1.8594,1.8591,1.859,1.8596,1.8606,1.8601,1.8581,1.8581,1.8581,1.8581,1.8581,1.8581,1.8111,1.814,1.8165,1.8209,1.8238,1.8273,1.8292,1.8321,1.8349,1.8392,1.842,1.8447,1.8483,1.8522,1.8554,1.8565,1.8577,1.857,1.8584,1.8592,1.8595,1.8597,1.8593,1.8572,1.8572,1.8572,1.8572,1.8572]}]]